TimeCDT,TemperatureF,Dew PointF,Humidity,Sea Level PressureIn,VisibilityMPH,Wind Direction,Wind SpeedMPH,Gust SpeedMPH,PrecipitationIn,Events,Conditions,WindDirDegrees,DateUTC
12:15 AM,68.0,66.2,94,29.93,10.0,ENE,8.1,-,N/A,,Mostly Cloudy,70,2013-05-03 05:15:00
12:35 AM,68.0,66.2,94,29.93,10.0,ENE,8.1,-,N/A,,Mostly Cloudy,70,2013-05-03 05:35:00
12:55 AM,68.0,64.4,88,29.92,10.0,ENE,9.2,-,N/A,,Overcast,70,2013-05-03 05:55:00
1:15 AM,68.0,64.4,88,29.92,10.0,ENE,9.2,-,N/A,,Overcast,60,2013-05-03 06:15:00
1:35 AM,68.0,64.4,88,29.91,7.0,ENE,8.1,-,N/A,,Overcast,60,2013-05-03 06:35:00
1:55 AM,68.0,64.4,88,29.90,7.0,ENE,6.9,-,N/A,,Overcast,70,2013-05-03 06:55:00
2:15 AM,68.0,64.4,88,29.90,7.0,ENE,5.8,-,N/A,,Overcast,70,2013-05-03 07:15:00
2:35 AM,68.0,64.4,88,29.90,7.0,ENE,5.8,-,N/A,,Overcast,60,2013-05-03 07:35:00
2:55 AM,68.0,64.4,88,29.89,7.0,ENE,6.9,-,N/A,,Overcast,60,2013-05-03 07:55:00
3:15 AM,68.0,64.4,88,29.89,7.0,ENE,8.1,-,N/A,,Mostly Cloudy,60,2013-05-03 08:15:00
3:35 AM,68.0,64.4,88,29.89,7.0,ENE,6.9,-,N/A,,Mostly Cloudy,60,2013-05-03 08:35:00
3:55 AM,66.2,64.4,94,29.89,7.0,Calm,Calm,-,N/A,,Scattered Clouds,0,2013-05-03 08:55:00
4:15 AM,66.2,64.4,94,29.89,7.0,NE,3.5,-,N/A,,Scattered Clouds,40,2013-05-03 09:15:00
4:35 AM,66.2,64.4,94,29.89,7.0,NNE,3.5,-,N/A,,Mostly Cloudy,30,2013-05-03 09:35:00
4:55 AM,66.2,64.4,94,29.89,7.0,Calm,Calm,-,N/A,,Scattered Clouds,0,2013-05-03 09:55:00
5:15 AM,64.4,64.4,100,29.89,5.0,Calm,Calm,-,N/A,,Clear,0,2013-05-03 10:15:00
5:35 AM,64.4,62.6,94,29.89,7.0,Calm,Calm,-,N/A,,Clear,0,2013-05-03 10:35:00
5:55 AM,62.6,62.6,100,29.89,5.0,Calm,Calm,-,N/A,,Clear,0,2013-05-03 10:55:00
6:15 AM,64.4,62.6,94,29.89,5.0,Calm,Calm,-,N/A,,Scattered Clouds,0,2013-05-03 11:15:00
6:35 AM,64.4,64.4,100,29.89,5.0,Calm,Calm,-,N/A,,Mostly Cloudy,0,2013-05-03 11:35:00
6:55 AM,64.4,62.6,94,29.89,7.0,ENE,5.8,-,N/A,,Scattered Clouds,70,2013-05-03 11:55:00
7:15 AM,68.0,64.4,88,29.90,5.0,ENE,3.5,-,N/A,,Clear,60,2013-05-03 12:15:00
7:35 AM,68.0,64.4,88,29.91,7.0,ENE,4.6,-,N/A,,Scattered Clouds,70,2013-05-03 12:35:00
7:55 AM,68.0,64.4,88,29.92,7.0,ENE,4.6,-,N/A,,Overcast,60,2013-05-03 12:55:00
8:15 AM,68.0,62.6,83,29.92,7.0,ENE,4.6,-,N/A,,Overcast,60,2013-05-03 13:15:00
8:35 AM,68.0,64.4,88,29.92,7.0,ENE,8.1,-,N/A,,Overcast,60,2013-05-03 13:35:00
8:55 AM,69.8,64.4,83,29.92,7.0,NE,8.1,-,N/A,,Overcast,50,2013-05-03 13:55:00
9:15 AM,71.6,64.4,78,29.92,10.0,ENE,12.7,17.3,N/A,,Overcast,60,2013-05-03 14:15:00
9:35 AM,71.6,64.4,78,29.92,7.0,East,8.1,-,N/A,,Overcast,80,2013-05-03 14:35:00
9:55 AM,71.6,62.6,73,29.92,7.0,East,9.2,-,N/A,,Overcast,80,2013-05-03 14:55:00
10:15 AM,71.6,62.6,73,29.92,7.0,East,9.2,-,N/A,,Overcast,80,2013-05-03 15:15:00
10:35 AM,73.4,62.6,69,29.92,7.0,East,6.9,-,N/A,,Overcast,90,2013-05-03 15:35:00
10:55 AM,73.4,62.6,69,29.92,5.0,East,9.2,-,N/A,,Haze,90,2013-05-03 15:55:00
11:15 AM,73.4,62.6,69,29.92,10.0,East,9.2,-,N/A,,Overcast,80,2013-05-03 16:15:00
11:35 AM,73.4,62.6,69,29.91,7.0,East,9.2,-,N/A,,Overcast,90,2013-05-03 16:35:00
11:55 AM,75.2,62.6,65,29.91,7.0,East,8.1,-,N/A,,Overcast,100,2013-05-03 16:55:00
12:15 PM,73.4,64.4,73,29.90,7.0,ENE,6.9,-,N/A,,Overcast,70,2013-05-03 17:15:00
12:35 PM,73.4,62.6,69,29.89,7.0,ENE,8.1,-,N/A,,Overcast,70,2013-05-03 17:35:00
12:55 PM,73.4,64.4,73,29.89,5.0,East,8.1,-,N/A,,Haze,90,2013-05-03 17:55:00
1:15 PM,73.4,62.6,69,29.88,10.0,East,8.1,-,N/A,,Overcast,100,2013-05-03 18:15:00
1:35 PM,73.4,62.6,69,29.88,7.0,East,6.9,-,N/A,,Overcast,80,2013-05-03 18:35:00
1:55 PM,73.4,62.6,69,29.87,7.0,East,6.9,-,N/A,,Overcast,80,2013-05-03 18:55:00
2:15 PM,71.6,62.6,73,29.86,10.0,East,5.8,-,N/A,,Overcast,90,2013-05-03 19:15:00
2:35 PM,73.4,62.6,69,29.86,7.0,East,3.5,-,N/A,,Overcast,80,2013-05-03 19:35:00
2:55 PM,73.4,64.4,73,29.86,5.0,East,8.1,-,N/A,,Haze,100,2013-05-03 19:55:00
3:15 PM,71.6,66.2,83,29.85,3.0,Calm,Calm,-,N/A,,Haze,0,2013-05-03 20:15:00
3:35 PM,71.6,64.4,78,29.85,10.0,Calm,Calm,-,N/A,,Overcast,0,2013-05-03 20:35:00
3:55 PM,73.4,64.4,73,29.84,7.0,East,3.5,-,N/A,,Overcast,80,2013-05-03 20:55:00
4:15 PM,73.4,64.4,73,29.84,7.0,ENE,6.9,-,N/A,,Overcast,70,2013-05-03 21:15:00
4:35 PM,73.4,64.4,73,29.84,7.0,East,9.2,-,N/A,,Overcast,90,2013-05-03 21:35:00
4:55 PM,71.6,64.4,78,29.84,7.0,East,5.8,-,N/A,,Overcast,80,2013-05-03 21:55:00
5:15 PM,71.6,64.4,78,29.83,10.0,East,6.9,-,N/A,,Overcast,90,2013-05-03 22:15:00
5:35 PM,71.6,64.4,78,29.83,7.0,East,5.8,-,N/A,,Overcast,100,2013-05-03 22:35:00
5:55 PM,71.6,64.4,78,29.84,7.0,East,3.5,-,N/A,,Overcast,100,2013-05-03 22:55:00
6:15 PM,71.6,64.4,78,29.84,7.0,East,3.5,-,N/A,,Overcast,100,2013-05-03 23:15:00
6:35 PM,69.8,64.4,83,29.84,10.0,East,4.6,-,N/A,,Overcast,90,2013-05-03 23:35:00
6:55 PM,69.8,64.4,83,29.85,7.0,Calm,Calm,-,N/A,,Overcast,0,2013-05-03 23:55:00
7:15 PM,60.8,59.0,94,29.87,2.5,NW,15.0,19.6,0.09,Rain,Rain,310,2013-05-04 00:15:00
7:35 PM,60.8,59.0,94,29.87,4.0,NW,12.7,21.9,0.10,Rain,Rain,310,2013-05-04 00:35:00
7:55 PM,59.0,57.2,94,29.88,3.0,NW,11.5,19.6,0.11,Rain,Light Rain,310,2013-05-04 00:55:00
8:15 PM,59.0,57.2,94,29.89,2.0,NW,13.8,18.4,N/A,Rain,Rain,310,2013-05-04 01:15:00
8:35 PM,55.4,55.4,100,29.90,2.5,NW,15.0,23.0,N/A,Rain,Light Rain,320,2013-05-04 01:35:00
8:55 PM,55.4,53.6,94,29.91,4.0,NW,16.1,25.3,N/A,,Light Drizzle,320,2013-05-04 01:55:00
9:15 PM,55.4,53.6,94,29.92,5.0,NW,12.7,26.5,N/A,,Overcast,320,2013-05-04 02:15:00
9:35 PM,55.4,53.6,94,29.93,4.0,NW,17.3,26.5,N/A,,Drizzle,320,2013-05-04 02:35:00
9:55 PM,53.6,53.6,100,29.93,2.5,NNW,15.0,23.0,N/A,Rain,Light Rain,330,2013-05-04 02:55:00
10:15 PM,53.6,53.6,100,29.94,2.5,NNW,11.5,23.0,N/A,Rain,Light Rain,330,2013-05-04 03:15:00
10:35 PM,53.6,53.6,100,29.94,5.0,NW,15.0,19.6,N/A,Rain,Light Rain,320,2013-05-04 03:35:00
10:55 PM,53.6,51.8,94,29.94,3.0,NW,11.5,20.7,N/A,Rain,Rain,320,2013-05-04 03:55:00
11:15 PM,53.6,51.8,94,29.94,2.5,NNW,13.8,20.7,N/A,Rain,Rain,330,2013-05-04 04:15:00
11:35 PM,53.6,51.8,94,29.95,2.0,NNW,17.3,25.3,N/A,Rain,Light Rain,330,2013-05-04 04:35:00
11:55 PM,51.8,51.8,100,29.95,2.0,NNW,15.0,25.3,N/A,Rain,Light Rain,330,2013-05-04 04:55:00